Location: Wavehorne
(51.0500°N, 0.8333°E)
Time: 19:54:25
(UTC+00:00)

Cosmos 1553 Rocket - Pass Details

Date: 20 June 2021
Orbit: 940 x 1009 km, 82.9° (Epoch: 31 July)

Event Time Altitude Azimuth Distance (km) Brightness Sun altitude
Rises 02:00:14 0° 350° (N) 3,727 8.0 -10.8°
Reaches altitude 10° 02:02:48 10° 352° (N) 2,765 7.2 -10.6°
Maximum altitude 02:09:10 77° 79° (E) 1,007 4.2 -10.1°
Drops below altitude 10° 02:15:21 10° 166° (SSE) 2,698 5.9 -9.6°
Sets 02:17:50 0° 168° (SSE) 3,631 6.6 -9.4°
